| time (UTC) | temp C | wind direction | speed KPH | gust KPH | rain 1hr cm | rain 24hr cm | rain mn cm | humidity % | barometer mb |
| 20260506172545 | 15 | 190 | 1.6 | 6.4 | 0.00 | 0.18 | 0.05 | 63 | 1020.7 |
| 20260506172048 | 15 | 178 | 0.0 | 6.4 | 0.00 | 0.18 | 0.05 | 68 | 1020.6 |
| 20260506171559 | 14 | 212 | 0.0 | 6.4 | 0.00 | 0.18 | 0.05 | 68 | 1020.6 |
| 20260506171047 | 14 | 77 | 0.0 | 6.4 | 0.00 | 0.18 | 0.05 | 68 | 1020.6 |
| 20260506170549 | 13 | 43 | 0.0 | 6.4 | 0.00 | 0.18 | 0.05 | 68 | 1020.6 |
| 20260506165545 | 13 | 0 | 1.6 | 8.0 | 0.00 | 0.20 | 0.05 | 70 | 1020.5 |
| 20260506165046 | 13 | 155 | 0.0 | 8.0 | 0.00 | 0.20 | 0.05 | 70 | 1020.3 |
| 20260506164600 | 13 | 225 | 1.6 | 8.0 | 0.00 | 0.20 | 0.05 | 70 | 1020.2 |
| 20260506164044 | 13 | 215 | 1.6 | 6.4 | 0.00 | 0.20 | 0.05 | 69 | 1020.2 |
| 20260506163544 | 13 | 167 | 0.0 | 4.8 | 0.00 | 0.20 | 0.05 | 71 | 1020.1 |
| 20260506163105 | 12 | 0 | 0.0 | 3.2 | 0.00 | 0.20 | 0.05 | 70 | 1020.1 |
| 20260506162546 | 12 | 0 | 0.0 | 6.4 | 0.00 | 0.20 | 0.05 | 75 | 1020.0 |
| 20260506162047 | 12 | 0 | 0.0 | 6.4 | 0.00 | 0.20 | 0.05 | 75 | 1020.0 |
| 20260506161553 | 11 | 206 | 0.0 | 1.6 | 0.03 | 0.20 | 0.05 | 80 | 1020.0 |
| 20260506161045 | 11 | 0 | 0.0 | 3.2 | 0.03 | 0.20 | 0.05 | 81 | 1019.9 |
| 20260506160545 | 10 | 0 | 0.0 | 3.2 | 0.03 | 0.20 | 0.05 | 83 | 1019.9 |
| 20260506160053 | 10 | 0 | 0.0 | 3.2 | 0.03 | 0.20 | 0.05 | 83 | 1019.8 |
| 20260506155546 | 9 | 0 | 0.0 | 1.6 | 0.03 | 0.20 | 0.05 | 87 | 1019.8 |
| 20260506155048 | 8 | 0 | 0.0 | 1.6 | 0.03 | 0.20 | 0.05 | 90 | 1019.8 |
| 20260506154612 | 8 | 0 | 0.0 | 3.2 | 0.03 | 0.20 | 0.05 | 91 | 1019.8 |
| 20260506154045 | 7 | 0 | 0.0 | 3.2 | 0.03 | 0.20 | 0.05 | 93 | 1019.7 |
| 20260506153544 | 7 | 102 | 0.0 | 3.2 | 0.03 | 0.20 | 0.05 | 96 | 1019.7 |
| 20260506153055 | 6 | 0 | 0.0 | 3.2 | 0.03 | 0.20 | 0.05 | 96 | 1019.6 |
| 20260506152545 | 6 | 0 | 0.0 | 1.6 | 0.03 | 0.20 | 0.05 | 96 | 1019.6 |
| 20260506152045 | 6 | 0 | 0.0 | 3.2 | 0.03 | 0.20 | 0.05 | 96 | 1019.6 |
| 20260506151551 | 6 | 110 | 0.0 | 3.2 | 0.00 | 0.18 | 0.03 | 96 | 1019.7 |
| 20260506151044 | 6 | 0 | 0.0 | 3.2 | 0.00 | 0.18 | 0.03 | 96 | 1019.7 |
| 20260506150547 | 5 | 0 | 0.0 | 4.8 | 0.00 | 0.18 | 0.03 | 96 | 1019.7 |
| 20260506150056 | 5 | 0 | 0.0 | 4.8 | 0.00 | 0.18 | 0.03 | 96 | 1019.6 |
| 20260506145547 | 5 | 0 | 0.0 | 4.8 | 0.00 | 0.20 | 0.03 | 96 | 1019.6 |
| 20260506145050 | 5 | 0 | 0.0 | 4.8 | 0.00 | 0.20 | 0.03 | 96 | 1019.6 |
| 20260506144600 | 5 | 0 | 0.0 | 3.2 | 0.00 | 0.20 | 0.03 | 96 | 1019.7 |
| 20260506144048 | 4 | 0 | 0.0 | 3.2 | 0.00 | 0.20 | 0.03 | 96 | 1019.6 |
| 20260506143548 | 4 | 0 | 0.0 | 3.2 | 0.00 | 0.20 | 0.03 | 96 | 1019.6 |
| 20260506143055 | 4 | 0 | 0.0 | 3.2 | 0.00 | 0.20 | 0.03 | 96 | 1019.5 |
| 20260506142551 | 3 | 249 | 0.0 | 3.2 | 0.00 | 0.20 | 0.03 | 95 | 1019.4 |
| 20260506142046 | 3 | 0 | 0.0 | 1.6 | 0.00 | 0.20 | 0.03 | 95 | 1019.5 |
| 20260506141603 | 3 | 0 | 0.0 | 1.6 | 0.00 | 0.20 | 0.03 | 95 | 1019.4 |
| 20260506141045 | 3 | 0 | 0.0 | 1.6 | 0.00 | 0.20 | 0.03 | 95 | 1019.4 |
| 20260506140545 | 3 | 0 | 0.0 | 1.6 | 0.00 | 0.20 | 0.03 | 95 | 1019.3 |
| 20260506140112 | 2 | 0 | 0.0 | 1.6 | 0.00 | 0.20 | 0.03 | 95 | 1019.4 |
| 20260506135547 | 2 | 0 | 0.0 | 0.0 | 0.00 | 0.23 | 0.03 | 95 | 1019.3 |
| 20260506135044 | 2 | 0 | 0.0 | 3.2 | 0.00 | 0.23 | 0.03 | 95 | 1019.3 |
| 20260506134553 | 2 | 0 | 0.0 | 3.2 | 0.00 | 0.23 | 0.03 | 94 | 1019.3 |
| 20260506134044 | 2 | 0 | 0.0 | 0.0 | 0.00 | 0.23 | 0.03 | 94 | 1019.3 |
| 20260506133545 | 2 | 0 | 0.0 | 0.0 | 0.00 | 0.23 | 0.03 | 94 | 1019.2 |
| 20260506133057 | 2 | 0 | 0.0 | 0.0 | 0.00 | 0.23 | 0.03 | 94 | 1019.2 |
| 20260506132544 | 2 | 0 | 0.0 | 1.6 | 0.00 | 0.23 | 0.03 | 94 | 1019.1 |
| 20260506132045 | 2 | 0 | 0.0 | 1.6 | 0.00 | 0.23 | 0.03 | 94 | 1019.1 |
| 20260506131556 | 2 | 0 | 0.0 | 1.6 | 0.00 | 0.23 | 0.03 | 94 | 1019.0 |
| 20260506131045 | 2 | 0 | 0.0 | 1.6 | 0.00 | 0.23 | 0.03 | 94 | 1019.0 |
| 20260506130545 | 2 | 0 | 0.0 | 1.6 | 0.00 | 0.23 | 0.03 | 94 | 1018.8 |
| 20260506130059 | 2 | 0 | 0.0 | 0.0 | 0.00 | 0.23 | 0.03 | 94 | 1018.8 |
| 20260506125545 | 2 | 0 | 0.0 | 0.0 | 0.00 | 0.25 | 0.03 | 94 | 1018.8 |
| 20260506125045 | 2 | 0 | 0.0 | 0.0 | 0.00 | 0.25 | 0.03 | 94 | 1018.7 |
| 20260506124558 | 2 | 0 | 0.0 | 0.0 | 0.00 | 0.25 | 0.03 | 94 | 1018.7 |
| 20260506124048 | 2 | 0 | 0.0 | 0.0 | 0.00 | 0.25 | 0.03 | 94 | 1018.6 |
| 20260506123548 | 2 | 0 | 0.0 | 0.0 | 0.00 | 0.25 | 0.03 | 94 | 1018.6 |
| 20260506123054 | 2 | 0 | 0.0 | 0.0 | 0.00 | 0.25 | 0.03 | 94 | 1018.6 |
| 20260506122545 | 2 | 0 | 0.0 | 0.0 | 0.00 | 0.25 | 0.03 | 94 | 1018.5 |
| 20260506122045 | 2 | 0 | 0.0 | 0.0 | 0.00 | 0.25 | 0.03 | 94 | 1018.5 |
| 20260506121550 | 2 | 0 | 0.0 | 0.0 | 0.00 | 0.25 | 0.03 | 94 | 1018.5 |
| 20260506121044 | 2 | 0 | 0.0 | 0.0 | 0.00 | 0.25 | 0.03 | 94 | 1018.6 |
| 20260506120545 | 2 | 0 | 0.0 | 0.0 | 0.00 | 0.25 | 0.03 | 94 | 1018.5 |
| 20260506120055 | 2 | 0 | 0.0 | 1.6 | 0.00 | 0.25 | 0.03 | 94 | 1018.5 |
| 20260506115545 | 2 | 0 | 0.0 | 1.6 | 0.00 | 0.28 | 0.03 | 94 | 1018.5 |
| 20260506115048 | 2 | 0 | 0.0 | 1.6 | 0.00 | 0.28 | 0.03 | 94 | 1018.5 |
| 20260506114600 | 2 | 0 | 0.0 | 1.6 | 0.00 | 0.28 | 0.03 | 94 | 1018.5 |
| 20260506114048 | 2 | 0 | 0.0 | 1.6 | 0.00 | 0.28 | 0.03 | 94 | 1018.5 |
| 20260506113545 | 2 | 0 | 0.0 | 1.6 | 0.00 | 0.28 | 0.03 | 94 | 1018.5 |
| 20260506113059 | 2 | 0 | 0.0 | 1.6 | 0.00 | 0.28 | 0.03 | 94 | 1018.5 |
| 20260506112544 | 2 | 0 | 0.0 | 0.0 | 0.00 | 0.28 | 0.03 | 94 | 1018.5 |
| 20260506112044 | 2 | 0 | 0.0 | 1.6 | 0.00 | 0.28 | 0.03 | 93 | 1018.5 |
| 20260506111602 | 2 | 0 | 0.0 | 1.6 | 0.00 | 0.28 | 0.03 | 93 | 1018.4 |
| 20260506111046 | 2 | 0 | 0.0 | 1.6 | 0.00 | 0.28 | 0.03 | 93 | 1018.5 |
| 20260506110545 | 2 | 0 | 0.0 | 0.0 | 0.00 | 0.28 | 0.03 | 93 | 1018.4 |
| 20260506110050 | 2 | 0 | 0.0 | 1.6 | 0.00 | 0.28 | 0.03 | 93 | 1018.4 |
| 20260506105545 | 2 | 0 | 0.0 | 3.2 | 0.00 | 0.30 | 0.03 | 93 | 1018.4 |
| 20260506105044 | 2 | 0 | 0.0 | 3.2 | 0.00 | 0.30 | 0.03 | 93 | 1018.3 |
| 20260506104557 | 2 | 0 | 0.0 | 1.6 | 0.00 | 0.30 | 0.03 | 93 | 1018.3 |
| 20260506104048 | 2 | 0 | 0.0 | 1.6 | 0.00 | 0.30 | 0.03 | 93 | 1018.3 |
| 20260506103545 | 3 | 0 | 0.0 | 1.6 | 0.00 | 0.30 | 0.03 | 93 | 1018.3 |
| 20260506103101 | 3 | 0 | 0.0 | 0.0 | 0.00 | 0.30 | 0.03 | 93 | 1018.3 |
| 20260506102547 | 3 | 0 | 0.0 | 0.0 | 0.00 | 0.30 | 0.03 | 93 | 1018.3 |
| 20260506102044 | 3 | 0 | 0.0 | 0.0 | 0.00 | 0.30 | 0.03 | 93 | 1018.3 |
| 20260506101553 | 3 | 0 | 0.0 | 1.6 | 0.00 | 0.30 | 0.03 | 93 | 1018.3 |
| 20260506101046 | 3 | 0 | 0.0 | 1.6 | 0.00 | 0.30 | 0.03 | 94 | 1018.3 |
| 20260506100544 | 3 | 0 | 0.0 | 1.6 | 0.00 | 0.30 | 0.03 | 93 | 1018.3 |
| 20260506100100 | 3 | 0 | 0.0 | 1.6 | 0.00 | 0.30 | 0.03 | 94 | 1018.3 |
| 20260506095545 | 3 | 0 | 0.0 | 1.6 | 0.00 | 0.30 | 0.03 | 93 | 1018.4 |
| 20260506095047 | 3 | 0 | 0.0 | 3.2 | 0.00 | 0.30 | 0.03 | 93 | 1018.4 |
| 20260506094555 | 4 | 0 | 0.0 | 3.2 | 0.00 | 0.30 | 0.03 | 93 | 1018.3 |
| 20260506094044 | 4 | 0 | 0.0 | 3.2 | 0.00 | 0.30 | 0.03 | 93 | 1018.3 |
| 20260506093547 | 4 | 0 | 0.0 | 3.2 | 0.00 | 0.30 | 0.03 | 93 | 1018.3 |
| 20260506093051 | 4 | 0 | 0.0 | 3.2 | 0.00 | 0.30 | 0.03 | 93 | 1018.2 |
| 20260506092546 | 4 | 0 | 0.0 | 1.6 | 0.00 | 0.30 | 0.03 | 93 | 1018.2 |
| 20260506092044 | 4 | 0 | 0.0 | 1.6 | 0.00 | 0.30 | 0.03 | 93 | 1018.2 |
| 20260506091554 | 4 | 0 | 0.0 | 0.0 | 0.00 | 0.30 | 0.03 | 93 | 1018.3 |
| 20260506091047 | 4 | 0 | 0.0 | 0.0 | 0.00 | 0.30 | 0.03 | 93 | 1018.3 |
| 20260506090544 | 5 | 0 | 0.0 | 0.0 | 0.00 | 0.30 | 0.03 | 93 | 1018.4 |
| 20260506090050 | 5 | 0 | 0.0 | 0.0 | 0.00 | 0.30 | 0.03 | 93 | 1018.4 |
| 20260506085544 | 5 | 0 | 0.0 | 0.0 | 0.00 | 0.33 | 0.03 | 93 | 1018.4 |
| 20260506085047 | 5 | 0 | 0.0 | 0.0 | 0.00 | 0.33 | 0.03 | 93 | 1018.5 |
| 20260506084554 | 5 | 0 | 0.0 | 0.0 | 0.00 | 0.33 | 0.03 | 93 | 1018.7 |
| 20260506084045 | 5 | 0 | 0.0 | 1.6 | 0.03 | 0.33 | 0.03 | 93 | 1018.6 |
| 20260506083545 | 5 | 0 | 0.0 | 1.6 | 0.03 | 0.33 | 0.03 | 93 | 1018.7 |
| 20260506083052 | 5 | 0 | 0.0 | 1.6 | 0.03 | 0.33 | 0.03 | 93 | 1018.7 |
| 20260506082618 | 5 | 0 | 0.0 | 1.6 | 0.03 | 0.33 | 0.03 | 93 | 1018.8 |
| 20260506082045 | 5 | 0 | 0.0 | 1.6 | 0.03 | 0.33 | 0.03 | 93 | 1018.8 |
| 20260506081559 | 5 | 0 | 0.0 | 1.6 | 0.03 | 0.33 | 0.03 | 93 | 1018.8 |
| 20260506081045 | 5 | 0 | 0.0 | 1.6 | 0.03 | 0.33 | 0.03 | 93 | 1018.9 |
| 20260506080546 | 5 | 0 | 0.0 | 1.6 | 0.03 | 0.33 | 0.03 | 93 | 1018.9 |
| 20260506073058 | 5 | 168 | 0.0 | 9.7 | 0.00 | 0.36 | 0.00 | 93 | 1019.2 |
| 20260506072544 | 5 | 0 | 0.0 | 9.7 | 0.00 | 0.36 | 0.00 | 93 | 1019.2 |
| 20260506072044 | 5 | 224 | 1.6 | 8.0 | 0.00 | 0.36 | 0.00 | 93 | 1019.2 |
| 20260506071551 | 5 | 188 | 0.0 | 6.4 | 0.00 | 0.36 | 0.00 | 93 | 1019.2 |
| 20260506071046 | 5 | 0 | 0.0 | 6.4 | 0.00 | 0.36 | 0.00 | 93 | 1019.2 |
| 20260506070544 | 5 | 159 | 0.0 | 3.2 | 0.00 | 0.36 | 0.00 | 93 | 1019.2 |
| 20260506062045 | 5 | 158 | 0.0 | 1.6 | 0.00 | 0.38 | 0.36 | 92 | 1018.7 |
| 20260506061556 | 5 | 0 | 0.0 | 1.6 | 0.00 | 0.38 | 0.36 | 92 | 1018.8 |
| 20260506061048 | 5 | 0 | 0.0 | 1.6 | 0.00 | 0.38 | 0.36 | 92 | 1018.9 |
| 20260506060546 | 5 | 0 | 0.0 | 1.6 | 0.00 | 0.38 | 0.36 | 92 | 1018.9 |
| 20260506051046 | 5 | 0 | 0.0 | 1.6 | 0.00 | 0.41 | 0.36 | 92 | 1018.8 |
| 20260506050547 | 5 | 0 | 0.0 | 1.6 | 0.00 | 0.41 | 0.36 | 92 | 1018.8 |
| 20260506045049 | 5 | 0 | 0.0 | 4.8 | 0.03 | 0.43 | 0.36 | 92 | 1018.7 |
| 20260506044623 | 5 | 66 | 1.6 | 4.8 | 0.03 | 0.43 | 0.36 | 92 | 1018.7 |
| 20260506044046 | 5 | 0 | 0.0 | 4.8 | 0.03 | 0.43 | 0.36 | 92 | 1018.6 |
| 20260506043547 | 5 | 67 | 1.6 | 4.8 | 0.03 | 0.43 | 0.36 | 92 | 1018.5 |
| 20260506043054 | 5 | 0 | 1.6 | 4.8 | 0.03 | 0.43 | 0.36 | 92 | 1018.5 |
| 20260506042547 | 5 | 94 | 1.6 | 6.4 | 0.03 | 0.43 | 0.36 | 92 | 1018.5 |
| 20260506042046 | 5 | 167 | 1.6 | 6.4 | 0.03 | 0.43 | 0.36 | 92 | 1018.4 |
| 20260506041559 | 5 | 0 | 0.0 | 4.8 | 0.03 | 0.43 | 0.36 | 92 | 1018.3 |
| 20260506041044 | 5 | 97 | 0.0 | 4.8 | 0.03 | 0.43 | 0.36 | 92 | 1018.2 |
| 20260506040546 | 5 | 126 | 1.6 | 4.8 | 0.03 | 0.43 | 0.36 | 92 | 1018.2 |
| 20260506040056 | 5 | 0 | 1.6 | 4.8 | 0.03 | 0.43 | 0.36 | 91 | 1018.0 |
| 20260506035547 | 5 | 172 | 0.0 | 4.8 | 0.00 | 0.41 | 0.33 | 91 | 1018.0 |
| 20260506035045 | 5 | 129 | 0.0 | 6.4 | 0.00 | 0.41 | 0.33 | 91 | 1017.8 |
| 20260506034552 | 5 | 165 | 1.6 | 6.4 | 0.00 | 0.41 | 0.33 | 91 | 1017.7 |
| 20260506034046 | 5 | 144 | 0.0 | 4.8 | 0.00 | 0.41 | 0.33 | 91 | 1017.7 |
| 20260506033547 | 5 | 203 | 0.0 | 4.8 | 0.00 | 0.41 | 0.33 | 91 | 1017.6 |
| 20260506033054 | 5 | 0 | 1.6 | 4.8 | 0.00 | 0.41 | 0.33 | 91 | 1017.6 |
| 20260506032547 | 5 | 0 | 0.0 | 3.2 | 0.00 | 0.41 | 0.33 | 91 | 1017.4 |
| 20260506032047 | 6 | 0 | 0.0 | 3.2 | 0.00 | 0.41 | 0.33 | 91 | 1017.4 |
| 20260506031551 | 6 | 320 | 0.0 | 4.8 | 0.00 | 0.41 | 0.33 | 90 | 1017.4 |
| 20260506031045 | 6 | 275 | 0.0 | 4.8 | 0.00 | 0.41 | 0.33 | 90 | 1017.4 |
| 20260506030543 | 6 | 0 | 0.0 | 3.2 | 0.00 | 0.41 | 0.33 | 90 | 1017.3 |
| 20260506030057 | 6 | 182 | 1.6 | 6.4 | 0.00 | 0.41 | 0.33 | 89 | 1017.2 |
| 20260506025544 | 6 | 0 | 0.0 | 6.4 | 0.00 | 0.41 | 0.33 | 89 | 1017.1 |
| 20260506025047 | 6 | 162 | 1.6 | 6.4 | 0.00 | 0.41 | 0.33 | 89 | 1017.1 |
| 20260506024559 | 6 | 0 | 0.0 | 4.8 | 0.00 | 0.41 | 0.33 | 89 | 1017.0 |
| 20260506024045 | 6 | 156 | 0.0 | 1.6 | 0.00 | 0.41 | 0.33 | 88 | 1017.0 |
| 20260506023546 | 6 | 0 | 0.0 | 3.2 | 0.00 | 0.41 | 0.33 | 89 | 1016.9 |
| 20260506023100 | 6 | 67 | 0.0 | 6.4 | 0.00 | 0.41 | 0.33 | 88 | 1016.9 |
| 20260506022543 | 6 | 0 | 0.0 | 6.4 | 0.00 | 0.41 | 0.33 | 88 | 1016.8 |
| 20260506022045 | 6 | 0 | 0.0 | 4.8 | 0.00 | 0.41 | 0.33 | 88 | 1016.8 |
| 20260506021606 | 6 | 44 | 0.0 | 4.8 | 0.00 | 0.41 | 0.33 | 87 | 1016.7 |
| 20260506021044 | 6 | 0 | 0.0 | 4.8 | 0.00 | 0.41 | 0.33 | 87 | 1016.8 |
| 20260506020546 | 6 | 0 | 0.0 | 4.8 | 0.00 | 0.41 | 0.33 | 86 | 1016.7 |
| 20260506020049 | 6 | 0 | 1.6 | 6.4 | 0.00 | 0.41 | 0.33 | 85 | 1016.6 |
| 20260506015547 | 6 | 43 | 0.0 | 8.0 | 0.00 | 0.41 | 0.33 | 85 | 1016.6 |
| 20260506015047 | 6 | 209 | 1.6 | 8.0 | 0.00 | 0.41 | 0.33 | 85 | 1016.7 |
| 20260506014558 | 6 | 0 | 1.6 | 8.0 | 0.00 | 0.41 | 0.33 | 83 | 1016.5 |
| 20260506014044 | 6 | 142 | 1.6 | 8.0 | 0.00 | 0.41 | 0.33 | 83 | 1016.5 |
| 20260506013544 | 7 | 341 | 0.0 | 6.4 | 0.00 | 0.41 | 0.33 | 84 | 1016.5 |
| 20260506013104 | 7 | 0 | 0.0 | 6.4 | 0.00 | 0.41 | 0.33 | 84 | 1016.4 |
| 20260506012547 | 7 | 178 | 1.6 | 6.4 | 0.00 | 0.41 | 0.33 | 82 | 1016.4 |
| 20260506012047 | 7 | 0 | 1.6 | 4.8 | 0.00 | 0.41 | 0.33 | 81 | 1016.4 |
| 20260506011555 | 7 | 62 | 1.6 | 8.0 | 0.03 | 0.41 | 0.33 | 81 | 1016.5 |
| 20260506011048 | 7 | 0 | 1.6 | 9.7 | 0.03 | 0.41 | 0.33 | 81 | 1016.5 |
| 20260506010545 | 7 | 98 | 1.6 | 9.7 | 0.03 | 0.41 | 0.33 | 81 | 1016.4 |
| 20260506010112 | 7 | 0 | 3.2 | 8.0 | 0.03 | 0.41 | 0.33 | 81 | 1016.3 |
| 20260506005547 | 7 | 310 | 1.6 | 9.7 | 0.03 | 0.41 | 0.33 | 79 | 1016.3 |
| 20260506005044 | 7 | 273 | 3.2 | 9.7 | 0.03 | 0.41 | 0.33 | 78 | 1016.2 |
| 20260506004554 | 8 | 95 | 1.6 | 9.7 | 0.03 | 0.41 | 0.33 | 79 | 1016.2 |
| 20260506004048 | 8 | 309 | 0.0 | 6.4 | 0.03 | 0.41 | 0.33 | 78 | 1016.0 |
| 20260506003545 | 8 | 0 | 1.6 | 9.7 | 0.03 | 0.41 | 0.33 | 78 | 1016.1 |
| 20260506003052 | 8 | 351 | 1.6 | 9.7 | 0.03 | 0.41 | 0.33 | 75 | 1015.9 |
| 20260506002545 | 8 | 154 | 0.0 | 16.1 | 0.03 | 0.41 | 0.33 | 77 | 1015.9 |
| 20260506002045 | 8 | 242 | 1.6 | 16.1 | 0.00 | 0.38 | 0.30 | 78 | 1016.0 |
| 20260506001551 | 8 | 0 | 3.2 | 16.1 | 0.00 | 0.38 | 0.30 | 75 | 1015.8 |
| 20260506001045 | 8 | 338 | 3.2 | 12.9 | 0.00 | 0.38 | 0.30 | 76 | 1015.9 |
| 20260506000544 | 8 | 59 | 1.6 | 9.7 | 0.00 | 0.38 | 0.30 | 79 | 1015.9 |
| 20260506000056 | 8 | 0 | 1.6 | 14.5 | 0.00 | 0.38 | 0.30 | 79 | 1015.8 |
| 20260505235545 | 8 | 302 | 1.6 | 14.5 | 0.00 | 0.38 | 0.30 | 77 | 1015.9 |
| 20260505235048 | 8 | 142 | 3.2 | 11.3 | 0.00 | 0.38 | 0.30 | 73 | 1015.7 |
| 20260505234607 | 8 | 0 | 1.6 | 11.3 | 0.00 | 0.38 | 0.30 | 73 | 1015.7 |
| 20260505234045 | 8 | 0 | 1.6 | 12.9 | 0.00 | 0.38 | 0.30 | 76 | 1015.6 |
| 20260505233544 | 8 | 0 | 3.2 | 16.1 | 0.00 | 0.38 | 0.30 | 76 | 1015.7 |
| 20260505233049 | 8 | 170 | 3.2 | 17.7 | 0.00 | 0.38 | 0.30 | 74 | 1015.7 |
| 20260505232550 | 8 | 146 | 1.6 | 17.7 | 0.03 | 0.38 | 0.30 | 74 | 1015.6 |
| 20260505232046 | 8 | 230 | 3.2 | 11.3 | 0.03 | 0.38 | 0.30 | 76 | 1015.8 |
| 20260505231553 | 9 | 213 | 3.2 | 16.1 | 0.03 | 0.38 | 0.30 | 74 | 1015.7 |
| 20260505231046 | 9 | 294 | 3.2 | 27.4 | 0.03 | 0.38 | 0.30 | 74 | 1015.7 |
| 20260505230544 | 9 | 114 | 6.4 | 27.4 | 0.03 | 0.38 | 0.30 | 73 | 1015.7 |
| 20260505230053 | 8 | 172 | 1.6 | 16.1 | 0.03 | 0.38 | 0.30 | 78 | 1015.7 |
| 20260505225547 | 8 | 266 | 4.8 | 16.1 | 0.03 | 0.38 | 0.30 | 78 | 1015.7 |
| 20260505225048 | 8 | 27 | 3.2 | 9.7 | 0.03 | 0.38 | 0.30 | 81 | 1015.8 |
| 20260505224551 | 8 | 136 | 3.2 | 16.1 | 0.03 | 0.38 | 0.30 | 78 | 1015.8 |
| 20260505224049 | 8 | 0 | 3.2 | 16.1 | 0.03 | 0.38 | 0.30 | 78 | 1015.9 |
| 20260505223544 | 8 | 55 | 6.4 | 14.5 | 0.03 | 0.38 | 0.30 | 78 | 1015.9 |
| 20260505223050 | 8 | 0 | 3.2 | 14.5 | 0.03 | 0.38 | 0.30 | 80 | 1015.9 |
| 20260505222548 | 8 | 281 | 4.8 | 14.5 | 0.00 | 0.36 | 0.28 | 79 | 1016.1 |
| 20260505222044 | 8 | 202 | 3.2 | 17.7 | 0.00 | 0.36 | 0.28 | 80 | 1016.1 |
| 20260505221551 | 8 | 69 | 3.2 | 17.7 | 0.00 | 0.36 | 0.28 | 79 | 1016.1 |
| 20260505221052 | 8 | 152 | 3.2 | 11.3 | 0.00 | 0.36 | 0.28 | 82 | 1016.2 |
| 20260505220546 | 8 | 90 | 1.6 | 11.3 | 0.00 | 0.36 | 0.28 | 83 | 1016.1 |
| 20260505220056 | 7 | 275 | 3.2 | 17.7 | 0.00 | 0.36 | 0.28 | 81 | 1016.2 |
| 20260505215544 | 7 | 294 | 3.2 | 17.7 | 0.03 | 0.36 | 0.28 | 86 | 1016.2 |
| 20260505215052 | 7 | 312 | 4.8 | 14.5 | 0.03 | 0.36 | 0.28 | 84 | 1016.1 |
| 20260505214604 | 7 | 54 | 1.6 | 14.5 | 0.03 | 0.36 | 0.28 | 88 | 1016.1 |
| 20260505214047 | 7 | 0 | 1.6 | 14.5 | 0.03 | 0.36 | 0.28 | 87 | 1016.2 |
| 20260505213549 | 7 | 108 | 3.2 | 9.7 | 0.03 | 0.36 | 0.28 | 88 | 1016.2 |
| 20260505213059 | 7 | 131 | 3.2 | 12.9 | 0.03 | 0.36 | 0.28 | 90 | 1016.4 |
| 20260505212544 | 7 | 285 | 3.2 | 12.9 | 0.03 | 0.36 | 0.28 | 91 | 1016.4 |
| 20260505212046 | 7 | 60 | 1.6 | 11.3 | 0.03 | 0.36 | 0.28 | 92 | 1016.4 |
| 20260505211550 | 7 | 152 | 3.2 | 14.5 | 0.03 | 0.36 | 0.28 | 91 | 1016.3 |
| 20260505211044 | 7 | 155 | 3.2 | 14.5 | 0.03 | 0.36 | 0.28 | 91 | 1016.5 |
| 20260505210545 | 7 | 107 | 1.6 | 19.3 | 0.03 | 0.36 | 0.28 | 92 | 1016.3 |
| 20260505210058 | 7 | 123 | 1.6 | 19.3 | 0.03 | 0.36 | 0.28 | 93 | 1016.5 |
| 20260505205544 | 7 | 58 | 3.2 | 19.3 | 0.00 | 0.33 | 0.25 | 94 | 1016.6 |
| 20260505205049 | 7 | 217 | 1.6 | 9.7 | 0.00 | 0.33 | 0.25 | 94 | 1016.4 |
| 20260505204559 | 7 | 202 | 3.2 | 9.7 | 0.00 | 0.33 | 0.25 | 94 | 1016.6 |
| 20260505204044 | 6 | 84 | 1.6 | 11.3 | 0.00 | 0.33 | 0.25 | 94 | 1016.5 |
| 20260505203547 | 6 | 116 | 1.6 | 11.3 | 0.00 | 0.33 | 0.25 | 94 | 1016.5 |
| 20260505203056 | 7 | 99 | 3.2 | 11.3 | 0.00 | 0.33 | 0.25 | 95 | 1016.4 |
| 20260505202545 | 6 | 138 | 3.2 | 16.1 | 0.00 | 0.33 | 0.25 | 95 | 1016.5 |
| 20260505202045 | 6 | 131 | 1.6 | 16.1 | 0.00 | 0.33 | 0.25 | 95 | 1016.5 |
| 20260505201555 | 6 | 87 | 1.6 | 9.7 | 0.00 | 0.33 | 0.25 | 95 | 1016.6 |
| 20260505201044 | 6 | 199 | 3.2 | 9.7 | 0.00 | 0.33 | 0.25 | 95 | 1016.6 |
| 20260505200547 | 6 | 68 | 3.2 | 11.3 | 0.00 | 0.33 | 0.25 | 95 | 1016.7 |
| 20260505195545 | 6 | 78 | 1.6 | 12.9 | 0.00 | 0.33 | 0.25 | 95 | 1016.7 |
| 20260505195049 | 6 | 211 | 1.6 | 12.9 | 0.03 | 0.33 | 0.25 | 95 | 1016.6 |
| 20260505194557 | 5 | 0 | 0.0 | 12.9 | 0.03 | 0.33 | 0.25 | 95 | 1016.6 |
| 20260505194045 | 5 | 64 | 1.6 | 12.9 | 0.03 | 0.33 | 0.25 | 95 | 1016.7 |
| 20260505193546 | 5 | 0 | 1.6 | 11.3 | 0.03 | 0.33 | 0.25 | 95 | 1016.7 |
| 20260505193053 | 5 | 5 | 3.2 | 11.3 | 0.03 | 0.33 | 0.25 | 95 | 1016.9 |
| 20260505192543 | 5 | 148 | 3.2 | 8.0 | 0.03 | 0.33 | 0.25 | 95 | 1016.9 |
| 20260505192043 | 5 | 218 | 0.0 | 6.4 | 0.03 | 0.33 | 0.25 | 95 | 1016.8 |
| 20260505191551 | 5 | 61 | 1.6 | 9.7 | 0.03 | 0.33 | 0.25 | 95 | 1017.0 |
| 20260505191048 | 5 | 33 | 1.6 | 9.7 | 0.03 | 0.33 | 0.25 | 95 | 1016.9 |
| 20260505190545 | 5 | 171 | 1.6 | 9.7 | 0.03 | 0.33 | 0.25 | 95 | 1016.8 |
| 20260505190050 | 5 | 200 | 0.0 | 8.0 | 0.03 | 0.33 | 0.25 | 95 | 1016.8 |
| 20260505185547 | 5 | 150 | 3.2 | 17.7 | 0.03 | 0.33 | 0.25 | 95 | 1016.7 |
| 20260505185045 | 5 | 170 | 1.6 | 17.7 | 0.00 | 0.30 | 0.23 | 95 | 1016.7 |
| 20260505184552 | 5 | 141 | 3.2 | 11.3 | 0.00 | 0.30 | 0.23 | 95 | 1016.6 |
| 20260505184044 | 5 | 134 | 1.6 | 11.3 | 0.00 | 0.30 | 0.23 | 95 | 1016.7 |
| 20260505183548 | 5 | 36 | 1.6 | 16.1 | 0.00 | 0.30 | 0.23 | 95 | 1016.7 |
| 20260505183054 | 5 | 0 | 3.2 | 16.1 | 0.00 | 0.30 | 0.23 | 95 | 1016.5 |
| 20260505182547 | 5 | 63 | 0.0 | 9.7 | 0.00 | 0.30 | 0.23 | 95 | 1016.5 |
| 20260505182046 | 5 | 139 | 0.0 | 12.9 | 0.00 | 0.30 | 0.23 | 95 | 1016.5 |
| 20260505181550 | 5 | 84 | 4.8 | 12.9 | 0.00 | 0.30 | 0.23 | 95 | 1016.5 |
| 20260505181045 | 5 | 155 | 1.6 | 4.8 | 0.00 | 0.30 | 0.23 | 96 | 1016.5 |
| 20260505180550 | 5 | 240 | 1.6 | 9.7 | 0.00 | 0.30 | 0.23 | 95 | 1016.4 |
| 20260505180105 | 5 | 281 | 1.6 | 9.7 | 0.00 | 0.30 | 0.23 | 95 | 1016.4 |
| 20260505175547 | 5 | 54 | 1.6 | 8.0 | 0.00 | 0.30 | 0.23 | 95 | 1016.4 |
| 20260505175048 | 5 | 0 | 1.6 | 19.3 | 0.00 | 0.30 | 0.23 | 95 | 1016.2 |
| 20260505174603 | 5 | 140 | 4.8 | 19.3 | 0.00 | 0.30 | 0.23 | 95 | 1016.3 |
| 20260505174044 | 5 | 104 | 3.2 | 19.3 | 0.00 | 0.30 | 0.23 | 95 | 1016.2 |
| 20260505173544 | 5 | 74 | 3.2 | 12.9 | 0.00 | 0.30 | 0.23 | 95 | 1016.1 |
| 20260505173052 | 5 | 139 | 1.6 | 12.9 | 0.03 | 0.30 | 0.23 | 95 | 1016.1 |